Weather in Striznevo

Russia / Vologda Oblast     59°11′36″N   39°17′47″E
temp.,
°C
wind,
m/s
gust,
m/s
humid.,
%
clouds,
%
prec.,
mm/h
press.,
hPa
HPBL,
m
11 april, sun
sun1100:00+3ssw6177912 0.0 1019622
03:00+2sw5128496 0.0 1021499
06:00+2wsw269987 0.0 1023328
09:00+2wsw3594100 0.0 1026446
12:00+5wsw36765 0.0 1028857
15:00+7w36655 0.0 10291317
18:00+5ssw11875 0.0 103110
21:00−1ssw11945 0.0 103310
12 april, mon
mon1200:00−2sse119645 0.0 103511
03:00−1se239641 0.0 103540
06:00+3se3996100 0.1 1035195
09:00+5sse3996100 0.1 1035289
12:00+10s488371 0.0 1034501
15:00+13s47725 0.0 1033895
18:00+10sse38822 0.0 1032266
21:00+6sse3129110 0.0 1031304
13 april, tue
tue1300:00+6sse41293100 0.0 1030408
03:00+6s41195100 0.0 1028412
06:00+5sse31097100 0.0 1027317
09:00+8s4889100 0.0 1026363
12:00+12s4877100 0.0 1024601
15:00+15ssw477088 0.1 1023859
18:00+13ssw267976 0.0 1023177
21:00+10s279061 0.1 1022155
14 april, wed
wed1400:00+9ssw3119088 0.0 1022196
03:00+8ssw2692100 0.0 1022107
06:00+8s2693100 0.0 1021129
09:00+12ssw4107791 0.0 1020407
12:00+16sw485856 0.0 1020770
15:00+16sw4853100 0.0 10191204
18:00+9n4588100 0.0 1020281
21:00+5nne478599 0.0 1021307
15 april, thu
thu1500:00+4nne4888100 0.1 1022407
03:00+3nne489298 0.2 1021415
06:00+2nne4996100 0.6 1022389
09:00+2nne3799100 0.8 1022271
12:00+3nne4688100 0.1 1023658
15:00+6n4665100 0.1 10231159
18:00+5nnw3668100 0.0 1023919
21:00+2nnw4127753 0.1 1025498